TimeCDT,TemperatureF,Dew PointF,Humidity,Sea Level PressureIn,VisibilityMPH,Wind Direction,Wind SpeedMPH,Gust SpeedMPH,PrecipitationIn,Events,Conditions,WindDirDegrees,DateUTC
12:53 AM,66.9,59.0,76,29.96,10.0,East,4.6,-,N/A,,Clear,80,2013-06-14 05:53:00
1:53 AM,64.0,57.9,80,29.95,10.0,Calm,Calm,-,N/A,,Clear,0,2013-06-14 06:53:00
2:53 AM,61.0,57.9,90,29.97,10.0,Calm,Calm,-,N/A,,Clear,0,2013-06-14 07:53:00
3:53 AM,61.0,57.9,90,30.00,10.0,Calm,Calm,-,N/A,,Clear,0,2013-06-14 08:53:00
4:53 AM,60.1,57.0,90,30.00,10.0,Calm,Calm,-,N/A,,Clear,0,2013-06-14 09:53:00
5:53 AM,60.1,57.9,93,30.01,10.0,North,-9999.0,-,N/A,,Clear,0,2013-06-14 10:53:00
6:53 AM,64.9,61.0,87,30.03,10.0,Calm,Calm,-,N/A,,Clear,0,2013-06-14 11:53:00
7:53 AM,69.1,59.0,70,30.04,10.0,NNE,4.6,-,N/A,,Clear,20,2013-06-14 12:53:00
8:53 AM,73.0,57.0,57,30.07,10.0,NNE,5.8,-,N/A,,Clear,30,2013-06-14 13:53:00
9:53 AM,75.9,57.0,52,30.07,10.0,NE,6.9,-,N/A,,Clear,50,2013-06-14 14:53:00
10:53 AM,78.1,55.9,46,30.06,10.0,North,5.8,-,N/A,,Clear,350,2013-06-14 15:53:00
11:53 AM,80.1,57.9,47,30.06,10.0,NNE,6.9,-,N/A,,Clear,20,2013-06-14 16:53:00
12:53 PM,81.0,57.9,45,30.04,10.0,Variable,3.5,-,N/A,,Clear,0,2013-06-14 17:53:00
1:53 PM,82.9,59.0,44,30.04,10.0,NNE,10.4,16.1,N/A,,Clear,20,2013-06-14 18:53:00
2:53 PM,82.9,59.0,44,30.01,10.0,North,10.4,16.1,N/A,,Clear,360,2013-06-14 19:53:00
3:53 PM,82.9,59.0,44,30.02,10.0,North,9.2,-,N/A,,Clear,10,2013-06-14 20:53:00
4:53 PM,82.9,59.0,44,30.01,10.0,North,9.2,-,N/A,,Clear,360,2013-06-14 21:53:00
5:53 PM,82.0,59.0,45,29.99,10.0,North,11.5,-,N/A,,Clear,10,2013-06-14 22:53:00
6:53 PM,79.0,59.0,50,29.99,10.0,NNE,5.8,-,N/A,,Clear,30,2013-06-14 23:53:00
7:53 PM,75.0,60.1,60,29.96,10.0,East,4.6,-,N/A,,Clear,90,2013-06-15 00:53:00
8:53 PM,73.0,57.9,59,29.98,10.0,Calm,Calm,-,N/A,,Clear,0,2013-06-15 01:53:00
9:53 PM,69.1,61.0,75,30.02,10.0,Calm,Calm,-,N/A,,Clear,0,2013-06-15 02:53:00
10:53 PM,64.0,60.1,87,30.01,10.0,Calm,Calm,-,N/A,,Clear,0,2013-06-15 03:53:00
11:53 PM,63.0,60.1,90,30.02,10.0,Calm,Calm,-,N/A,,Clear,0,2013-06-15 04:53:00